Hourly Data Report for October 19, 2013

All times are specified in Local Standard Time (LST). Add 1 hour to adjust for Daylight Saving Time where and when it is observed.

PENTICTON A
BRITISH COLUMBIA

49°27'45.000" N
119°36'08.000" W
344.40 m
1126146
71889
YYF

Download Data

Hourly Data (October 2013)
Hourly Data Report for October 19, 2013
Temp Definition
°C
Dew Point Temp Definition
°C
Rel Hum Definition
%
Wind Dir Definition
10's deg

Wind Spd Definition
km/h
Visibility Definition
km
Stn Press Definition
kPa
Hmdx Definition


Wind Chill Definition


Weather Definition


TIME
00:00 Legend Double Dagger 2.0 0.5 90 3 4 24.1 98.16     LegendNANA
01:00 Legend Double Dagger 0.8 0.2 96 6 1 24.1 98.16     Clear
02:00 Legend Double Dagger 0.4 -0.6 93 4 2 24.1 98.14     LegendNANA
03:00 Legend Double Dagger -0.3 -1.2 94 36 5 24.1 98.16   -2 LegendNANA
04:00 Legend Double Dagger 1.1 0.2 94 36 2 24.1 98.15     Mainly Clear
05:00 Legend Double Dagger 0.7 -0.5 92 36 8 24.1 98.18     LegendNANA
06:00 Legend Double Dagger 0.7 -0.2 94 3 6 24.1 98.16     LegendNANA
07:00 Legend Double Dagger 3.4 1.9 90 1 11 24.1 98.22     Mostly Cloudy
08:00 Legend Double Dagger 4.5 3.0 90 1 2 24.1 98.21     LegendNANA
09:00 Legend Double Dagger 7.3 4.8 84 1 8 19.3 98.22     LegendNANA
10:00 Legend Double Dagger 8.8 5.2 78 3 13 19.3 98.19     Mostly Cloudy
11:00 Legend Double Dagger 10.0 5.0 71 1 17 24.1 98.17     LegendNANA
12:00 Legend Double Dagger 10.7 5.5 70 35 3 24.1 98.06     LegendNANA
13:00 Legend Double Dagger 11.8 5.7 66 36 12 24.1 98.01     Mostly Cloudy
14:00 Legend Double Dagger 11.4 6.0 69 36 16 24.1 97.98     LegendNANA
15:00 Legend Double Dagger 11.8 6.1 68 36 19 24.1 97.96     LegendNANA
16:00 Legend Double Dagger 10.7 6.1 73 35 12 24.1 97.96     Mainly Clear
17:00 Legend Double Dagger 9.1 5.5 78 35 8 24.1 97.94     LegendNANA
18:00 Legend Double Dagger 6.6 4.6 87 36 9 24.1 97.97     LegendNANA
19:00 Legend Double Dagger 5.5 4.0 90 2 10 24.1 97.99     Mainly Clear
20:00 Legend Double Dagger 5.8 4.0 88 3 8 24.1 98.04     LegendNANA
21:00 Legend Double Dagger 5.3 3.8 90 1 14 24.1 98.08     LegendNANA
22:00 Legend Double Dagger 4.7 3.4 91 LegendMM LegendMM 24.1 98.09     Mainly Clear
23:00 Legend Double Dagger 5.1 3.4 89 36 12 24.1 98.10     LegendNANA

Notes on Data Quality.

Legend

  • E = Estimated
  • M = Missing
  • NA = Not Available
  • ‡ = Partner data that is not subject to review by the National Climate Archives
Date modified: